User: anonymous   Login
Location: Newark
(34.1333°N, 7.9667°W)
Time: 18:10:54
(UTC+00:00)
Language:

Transit 2A Rocket - Orbit

View from above orbital plane
View from above orbital plane
View from above satellite
View from above satellite

Ground track
Ground track

The orbit data is extracted from the following two-line orbital elements,

1 00047U 60007C   21168.70136905 -.00000063  00000-0  10918-4 0  9996
2 00047  66.6662 258.3484 0223170  34.3987 327.1335 14.42155071187345
Epoch (UTC): 17 June 2021 16:49:58
Eccentricity: 0.0223170
inclination: 66.6662°
perigee height: 592 km
apogee height: 910 km
right ascension of ascending node: 258.3484°
argument of perigee: 34.3987°
revolutions per day: 14.42155071
mean anomaly at epoch: 327.1335°
orbit number at epoch: 18734

The dashed part of the orbit path shows where the satellite is in the earth's shadow,  

DLR